This is the latest recevied weather packets stored in our database for station/object HG8GL-15. If no packets are shown the sender has not sent any weather packets the latest 10 day(s).
| Time | Temp. | Humidity | Pressure | Rain* | Wind** | Luminosity | Snow |
|---|---|---|---|---|---|---|---|
| 1777670639 | 24.44° C | 20% | 1024.4 hPa | - | - | - | - |
| 1777669732 | 25° C | 21% | 1024.3 hPa | - | - | - | - |
| 1777668825 | 24.44° C | 21% | 1024.3 hPa | - | - | - | - |
| 1777667918 | 24.44° C | 21% | 1024.2 hPa | - | - | - | - |
| 1777667010 | 25° C | 21% | 1024.2 hPa | - | - | - | - |
| 1777666103 | 24.44° C | 21% | 1024.2 hPa | - | - | - | - |
| 1777665235 | 24.44° C | 22% | 1024.2 hPa | - | - | - | - |
| 1777665196 | 24.44° C | 22% | 1024.2 hPa | - | - | - | - |
| 1777664289 | 23.89° C | 22% | 1024.2 hPa | - | - | - | - |
| 1777663382 | 23.89° C | 22% | 1024.2 hPa | - | - | - | - |
| 1777662475 | 23.89° C | 22% | 1024.2 hPa | - | - | - | - |
| 1777661568 | 23.89° C | 22% | 1024.2 hPa | - | - | - | - |
| 1777660660 | 22.78° C | 23% | 1024 hPa | - | - | - | - |
| 1777659753 | 23.33° C | 24% | 1024 hPa | - | - | - | - |
| 1777658846 | 23.33° C | 23% | 1023.8 hPa | - | - | - | - |
| 1777657939 | 22.78° C | 23% | 1023.8 hPa | - | - | - | - |
| 1777657031 | 22.78° C | 23% | 1023.7 hPa | - | - | - | - |
| 1777656174 | 22.78° C | 23% | 1023.6 hPa | - | - | - | - |
| 1777656123 | 22.78° C | 23% | 1023.6 hPa | - | - | - | - |
| 1777655271 | 23.33° C | 23% | 1023.6 hPa | - | - | - | - |
| 1777655216 | 23.33° C | 23% | 1023.6 hPa | - | - | - | - |
| 1777654309 | 22.78° C | 23% | 1023.6 hPa | - | - | - | - |
| 1777653401 | 22.78° C | 23% | 1023.7 hPa | - | - | - | - |
| 1777652494 | 22.78° C | 24% | 1023.6 hPa | - | - | - | - |
| 1777651621 | 22.78° C | 23% | 1023.7 hPa | - | - | - | - |
* Rain since midnight (hover to see other rain measurements)
** Current wind speed in m/s (hover to see current wind gust speed)